Regional Weather Roundup
Issued by NWS

Home | Current Version | Previous Version | Graphics & Text | Print | Product List | Glossary On
Versions: 1 2 3 4 5 6 7 8 9 10 11 12 13 14 15 16 17 18 19 20 21 22 23 24 25 26 27 28 29 30 31 32 33 34 35 36 37 38 39 40 41 42 43 44 45 46 47 48 49 50
000
ASUS43 KMPX 250301
RWRMN
WEATHER ROUNDUP FOR MINNESOTA
NATIONAL WEATHER SERVICE TWIN CITIES/CHANHASSEN MN
900 PM CST FRI FEB 24 2017


NOTE: "FAIR" INDICATES FEW OR NO CLOUDS BELOW 12,000 FEET WITH NO
SIGNIFICANT WEATHER AND/OR OBSTRUCTIONS TO VISIBILITY. N/A MEANS
CURRENT SKY AND/OR WEATHER CONDITIONS ARE NOT AVAILABLE.

MNZ060>063-068>070-250400-
   Twin Cities Metro

CITY           SKY/WX    TMP DP  RH WIND       PRES   REMARKS
TWIN CITIES    MOCLDY    23   9  55 N18G24    29.89R WCI   9
ST PAUL        PTCLDY    23  11  60 NW20      29.90R WCI   8
CRYSTAL        CLOUDY    22   8  55 NW14      29.89R WCI   9
BLAINE         MOCLDY    23  12  63 N15G23    29.88S WCI  10
LAKEVILLE      MOCLDY    21  12  68 NW16      29.87R WCI   7
EDEN PRAIRIE   CLOUDY    23  10  57 N10G21    29.88R WCI  12
SOUTH ST PAUL  CLOUDY    24  10  56 N13G22    29.88R WCI  12
LAKE ELMO      FAIR      23  12  63 N15G24    29.87S WCI  10
$$
MNZ001>005-007-008-013>017-022>024-027-028-250400-
   Northwest Minnesota

CITY           SKY/WX    TMP DP  RH WIND       PRES   REMARKS
BEMIDJI        CLEAR     13   5  71 NW15G21   29.98S WCI  -3
HALLOCK        CLEAR     10   7  85 W7        30.10F WCI   0
ROSEAU         CLEAR     10   3  72 NW7       30.05F WCI   0
WARROAD        CLEAR     10   3  72 NW10      30.04S WCI  -3
THIEF RVR FALL CLEAR     12   8  84 NW15      30.08S WCI  -4
CROOKSTON      CLEAR     16  10  79 N14       30.11S WCI   1
FOSSTON        CLEAR     12   7  79 NW13G18   30.04S WCI  -3
DETROIT LAKES  CLEAR     18  12  79 N15G24    30.02S WCI   3
MOORHEAD       CLEAR     18  10  73 N18       30.10R WCI   2
PARK RAPIDS    CLEAR     15   4  61 NW14      29.96R WCI   0
MAHNOMEN       FAIR      14   8  78 NW14G22   30.04S WCI  -1
$$
MNZ006-009>011-018-025>026-250400-
   North Central Minnesota

CITY           SKY/WX    TMP DP  RH WIND       PRES   REMARKS
BAUDETTE       CLEAR     10   1  67 NW9       30.00R WCI  -3
FLAG ISLAND    CLEAR     10   3  72 NW12      30.02S WCI  -4
INTL FALLS     CLEAR     11   1  64 NW10      29.96S WCI  -3
WASKISH        CLEAR     12   5  73 NW6       30.00R WCI   3
BIG FORK       CLEAR     12   1  62 NW3       29.94S
LONGVILLE      CLEAR     14   7  73 N6        29.95R WCI   5
GRAND RAPIDS   CLEAR     13   5  70 NW17G23   29.93S WCI  -4
CRANE LAKE     CLOUDY    12   1  62 N6        29.94S WCI   3
ORR            CLOUDY    14   1  57 CALM      29.88F
COOK           CLOUDY    12   3  67 N3        29.90S
WALKER         FAIR      14   5  68 NW12G20   29.96S WCI   0
$$
MNZ012-019>021-037-250400-
   Northeast Minnesota

CITY           SKY/WX    TMP DP  RH WIND       PRES   REMARKS
DULUTH         CLOUDY    16   7  67 N10       29.84R WCI   4
ELY            CLOUDY    12   1  62 N5G16     29.86S WCI   4
HIBBING        CLOUDY    14   4  64 NW10      29.88S WCI   1
EVELETH        CLOUDY    15  -3  46 N10       29.88S WCI   2
DULUTH HARBOR  CLOUDY    21  10  63 NW10      29.91R WCI  10
TWO HARBORS    CLOUDY    19   9  63 CALM      29.84R
SILVER BAY     CLOUDY    18   5  57 N5        29.83R WCI  11
GRAND MARAIS     N/A     19   3  49 VRB3      29.86S
G MARAIS ARPRT CLOUDY    10   0  61 N13       29.76R WCI  -5
$$
MNZ029>031-032-039>041-046>048-054>057-064-250400-
   West Central Minnesota

CITY           SKY/WX    TMP DP  RH WIND       PRES   REMARKS
FERGUS FALLS   CLEAR     18  10  73 N18G26    30.09R WCI   2
WHEATON        CLEAR     19  10  68 NW17G23   30.09S WCI   4
MORRIS         CLEAR     19  14  79 N18       30.02R WCI   4
ALEXANDRIA     CLEAR     18  11  74 NW16G24   29.98R WCI   3
ELBOW LAKE     FAIR      17  12  80 NW14G25   30.03S WCI   3
WADENA         CLEAR     16  10  79 NW15      29.97R WCI   1
GLENWOOD       CLEAR     18  12  79 NW18      29.97S WCI   2
APPLETON       CLOUDY    21  14  73 N16G26    30.04R WCI   7
BENSON         CLEAR     21  10  63 N20G28    30.02R WCI   6
ORTONVILLE     CLOUDY    19  12  73 N24       30.06R WCI   2
MADISON        CLOUDY    23  16  74 N22G31    30.05R WCI   8
WILLMAR        FAIR      23  16  74 NW20      29.97R WCI   8
$$
MNZ033>034-036-042>043-049>051-058-059-250400-
   Central Minnesota

CITY           SKY/WX    TMP DP  RH WIND       PRES   REMARKS
ST CLOUD       CLOUDY    21   8  57 N13       29.92R WCI   9
SAUK CENTRE    FAIR      19   9  65 NW22      29.95S WCI   3
PAYNESVILLE    CLOUDY    22  10  61 NW15G22   29.94S WCI   8
AITKIN         CLOUDY    19   3  49 NW13G21   29.91R WCI   7
PINE RIVER     CLEAR     18   7  62 NW8G18    29.97S WCI   7
BRAINERD       CLEAR     18   7  62 N16       29.93S WCI   3
STAPLES        CLEAR     16   7  67 NW17      29.96R WCI   0
LONG PRAIRIE   FAIR      19   9  63 W17G24    29.94F WCI   4
LITTLE FALLS   CLOUDY    21   9  58 NW9G17    29.94R WCI  11
LITCHFIELD     CLOUDY    25  10  54 NW17G25   29.93R WCI  11
BUFFALO        PTCLDY    22   8  53 NW15G24   29.93R WCI   9
MAPLE LAKE     CLOUDY    23  11  60 N16G24    29.93R WCI  10
HUTCHINSON     CLEAR     24  12  59 NW18G25   29.92S WCI  11
$$
MNZ037-044-045-052-053-250400-
   East Central Minnesota

CITY           SKY/WX    TMP DP  RH WIND       PRES   REMARKS
PRINCETON      PTCLDY    21  10  63 NW12G18   29.90S WCI   9
MORA           PTCLDY    21  10  63 NW13G20   29.90S WCI   9
CAMBRIDGE      MOCLDY    23  10  58 NW14      29.87F WCI  11
RUSH CITY      CLOUDY    21  10  63 N7        29.89S WCI  13
MOOSE LAKE     CLOUDY    19   9  63 N9G17     29.87R WCI   9
HINCKLEY       FAIR      21  10  63 N13G24    29.88S WCI   9
CLOQUET        CLOUDY    16   7  67 NW14G22   29.86S WCI   1
MCGREGOR       CLOUDY    18  10  73 NW14      29.91R WCI   4
$$
MNZ071>073-080-081-089-090-097-098-250400-
   Southwest Minnesota

CITY           SKY/WX    TMP DP  RH WIND       PRES   REMARKS
MONTEVIDEO     CLEAR     19  14  79 N22G30    30.03R WCI   3
GRANITE FALLS  CLEAR     23  17  77 NW20G25   30.02R WCI   8
CANBY          CLOUDY    22  16  75 NW16G26   30.05R WCI   9
MARSHALL       CLOUDY    21  14  74 N25G35    30.00R WCI   4
REDWOOD FALLS  CLOUDY    23  11  60 NW14G29   29.96R WCI  11
OLIVIA         CLOUDY    23  14  68 NW18G28   29.95R WCI   9
PIPESTONE      CLOUDY    21   9  58 N14G30    29.99R WCI   8
WINDOM         CLEAR     21  14  73 NW28G33   29.92R WCI   3
WORTHINGTON    PTCLDY    19  13  77 NW28      29.94R WCI   1
JACKSON        CLEAR     21  14  73 NW28G35   29.91R WCI   3
TRACY          CLEAR     22  16  77 NW24G31   29.98R WCI   5
SLAYTON        CLOUDY    19  12  74 NW23G35   29.96R WCI   2
$$
MNZ065>067-074>077-082>085-091>093-250400-
   South Central Minnesota

CITY           SKY/WX    TMP DP  RH WIND       PRES   REMARKS
NEW ULM        PTCLDY    23  10  58 N22G28    29.91S WCI   8
ST JAMES       CLEAR     21  16  79 NW24      29.93R WCI   4
FAIRMONT       CLOUDY    20  14  77 NW20      29.90R WCI   4
GLENCOE        PTCLDY    24  14  67 N12       29.91R WCI  13
FARIBAULT      PTCLDY    21  12  68 NW15      29.87R WCI   8
OWATONNA       CLOUDY    19  10  68 NW17G24   29.84R WCI   4
WASECA         CLOUDY    19  12  73 NW21G28   29.88R WCI   3
ALBERT LEA     CLOUDY    19  14  79 N14       29.83R WCI   6
$$
MNZ078>079-086>088-094>096-250400-
   Southeast Minnesota

CITY           SKY/WX    TMP DP  RH WIND       PRES   REMARKS
ROCHESTER      CLOUDY    19  17  92 N12       29.79R FOG     WCI   7
RED WING       CLOUDY    23  10  58 N9        29.84R WCI  13
STANTON        CLOUDY    23  14  68 N17G23    29.85R WCI   9
WINONA         LGT SNOW  21  18  86 N15G23    29.81R WCI   8
AUSTIN         CLOUDY    21  14  73 N14G22    29.81R WCI   8
PRESTON        CLOUDY    18  15  87 N15G22    29.78R WCI   4
$$
ABBREVIATIONS USED IN REMARKS
   TC - TEMPERATURES IN CELSIUS
  WCI - WIND CHILL INDEX
   HX - HEAT INDEX
  VSB - VISIBILITY
$$




USA.gov is the U.S. government's official web portal to all federal, state and local government web resources and services.